Weather History for Pine Ridge, SD

Change the Weather History Date:

Thursday, May 3, 2012

  Actual Average Record
Temperature  
Mean Temperature 13 °C 11 °C  
Max Temperature 24 °C 19 °C 27 °C (2004)
Min Temperature 3 °C 3 °C -8 °C (2005)
Degree Days  
Heating Degree Days 9 14  
Month to date heating degree days 22 43  
Since 1 July heating degree days 6046 6863  
Cooling Degree Days 0 0  
Month to date cooling degree days 0 0  
Year to date cooling degree days 1 0  
Growing Degree Days 6 (Base 50)    
Moisture  
Dew Point 7 °C    
Average Humidity 65    
Maximum Humidity 96    
Minimum Humidity 33    
Precipitation  
Precipitation 1.78 mm 2.54 mm 0.53 mm (2001)
Month to date precipitation 0.07 0.31  
Year to date precipitation 4.31 3.88  
Sea Level Pressure  
Sea Level Pressure 1011 hPa    
Wind  
Wind Speed 14 km/h (ENE)    
Max Wind Speed 34 km/h    
Max Gust Speed 45 km/h    
Visibility 16 kilometers    
Events Rain    
T = Trace of Precipitation, MM = Missing Value Source: NWS Daily Summary

Daily Weather History Graph

Daily Weather History Graph

Search for Another Location

Airport:

Trip Planner

Search our weather history database for the weather conditions in past years. The results will help you decide how hot, cold, wet, or windy it might be!

Date:

Astronomy

May. 03, 2012 Rise Set
Actual Time 5:40 AM MDT 7:54 PM MDT
Civil Twilight 5:09 AM MDT 8:25 PM MDT
Nautical Twilight 4:30 AM MDT 9:04 PM MDT
Astronomical Twilight 3:47 AM MDT 9:47 PM MDT
Moon 5:17 PM MDT (5/3) 3:49 AM MDT (5/3)
Length of Visible Light 15h 16m
Length of Day
14h 13m
Waxing Gibbous, 91% of the Moon is Illuminated
May 3
Waxing Gibbous
May 5
Full
May 12
Last Quarter
May 20
New
May 28
First Quarter

Hourly Weather History & Observations

Time (MDT) Temp. Dew Point Humidity Pressure Visibility Wind Dir Wind Speed Gust Speed Precip Events Conditions
12:52 AM 13.3 °C 6.1 °C 62% 1007.8 hPa 16.1 km North 9.3 km/h / 2.6 m/s - N/A   Clear
1:52 AM 11.7 °C 6.1 °C 69% 1008.0 hPa 16.1 km North 9.3 km/h / 2.6 m/s - N/A   Clear
2:52 AM 8.9 °C 6.1 °C 83% 1008.9 hPa 16.1 km NNW 9.3 km/h / 2.6 m/s - N/A   Clear
3:52 AM 7.2 °C 5.0 °C 86% 1010.2 hPa 16.1 km Calm Calm - N/A   Clear
4:52 AM 3.9 °C 2.8 °C 93% 1011.4 hPa 16.1 km Calm Calm - N/A   Clear
5:52 AM 3.9 °C 2.8 °C 93% 1012.2 hPa 16.1 km Calm Calm - N/A   Clear
6:52 AM 5.6 °C 5.0 °C 96% 1013.2 hPa 16.1 km Calm Calm - N/A   Clear
7:52 AM 9.4 °C 6.1 °C 80% 1013.4 hPa 16.1 km Calm Calm - N/A   Clear
8:52 AM 11.7 °C 7.2 °C 74% 1013.5 hPa 16.1 km Calm Calm - N/A   Clear
9:52 AM 15.6 °C 7.2 °C 57% 1013.1 hPa 16.1 km ENE 9.3 km/h / 2.6 m/s - N/A   Clear
10:52 AM 17.8 °C 6.7 °C 48% 1012.6 hPa 16.1 km East 14.8 km/h / 4.1 m/s - N/A   Clear
11:52 AM 19.4 °C 6.7 °C 44% 1012.5 hPa 16.1 km East 13.0 km/h / 3.6 m/s 25.9 km/h / 7.2 m/s N/A   Clear
2:52 PM 22.2 °C 6.1 °C 35% 1010.8 hPa 16.1 km SE 16.7 km/h / 4.6 m/s - N/A   Clear
3:52 PM 23.3 °C 5.6 °C 32% 1009.8 hPa 16.1 km East 24.1 km/h / 6.7 m/s 37.0 km/h / 10.3 m/s N/A   Clear
4:52 PM 22.8 °C 6.1 °C 34% 1009.9 hPa 16.1 km East 25.9 km/h / 7.2 m/s 35.2 km/h / 9.8 m/s N/A   Clear
5:52 PM 21.7 °C 6.7 °C 38% 1010.6 hPa 16.1 km East 20.4 km/h / 5.7 m/s - N/A   Clear
6:52 PM 20.6 °C 7.2 °C 42% 1010.5 hPa 16.1 km East 25.9 km/h / 7.2 m/s 37.0 km/h / 10.3 m/s N/A   Scattered Clouds
8:52 PM 16.7 °C 7.8 °C 56% 1010.2 hPa 16.1 km East 25.9 km/h / 7.2 m/s - N/A   Scattered Clouds
9:52 PM 16.7 °C 7.8 °C 56% 1010.1 hPa 16.1 km East 22.2 km/h / 6.2 m/s - N/A   Scattered Clouds
10:52 PM 15.6 °C 9.4 °C 67% 1009.3 hPa 16.1 km East 25.9 km/h / 7.2 m/s 35.2 km/h / 9.8 m/s 0.0 mm Rain Light Rain
11:52 PM 15.0 °C 10.6 °C 75% 1010.6 hPa 16.1 km NNE 13.0 km/h / 3.6 m/s - 0.3 mm Rain Light Rain